OPS 4682 DEB, 55122

Orbit data source: Space-Track

OPS 4682 DEB, 55122 is space debris in LEO originally from a launch on Sat, 03 Apr 1965 UTC launched from the Air Force Western Test Range (AFWTR). Debris objects in space refer to the collection of defunct objects orbiting the Earth. Examples of debris include non-operational satellites, rocket bodies, and fragments generated from explosions, collisions, or faulty payload assembly.

Loading next visibility...
Identifier
55122, 1965-027HM
Orbit
LEO
Country
Flag of USUS
Related business
Manufacturer
Unknown
Mission
Spacecraft
Bus & Motor
Unknown
Mass
Unknown
Launch date (UTC)
1965-04-03 (61 years ago)
Launch vehicle
Unknown
Launch site
Air Force Western Test Range (AFWTR)
Object type
Payload
Rocket body
Debris
Shape & HBR
Unknown shape, 0.1 m
Radar Cross Section
Medium (>0.1 m² and <1 m²)

Expand to show TLE details & history
Last TLE update: 1 day ago

TLE from 1 day ago
0 OPS 4682 DEB
1 55122U 65027HM  26263.09589248  .00000364  00000-0  11282-2 0  9998
2 55122  90.2498  15.0267 0035585 188.6613 349.2774 13.03253896603846
Epoch: 2026-09-20T02:18Z
TLE epoch observation values (Epoch: 2026-09-20T02:18:05.110Z)
Latitude
2.03679°
Longitude
161.51926°
Altitude
1,225.341 km
Speed
7.255 km/s
True Right ascension
13h 00m 08s
True Declination
2° 01' 31"
Sunlit
Object was in daylight at epoch
Visualization orbit readout
Latitude
Unknown
Longitude
Unknown
Altitude
Unknown
Speed
Unknown
Apparent Right ascension
Unknown
Apparent Declination
Unknown
Sunlit
N/A
Visualization observer readout
Local Sidereal Time
00:09:49
Azimuth
Unknown
Elevation
Unknown
Doppler factor
Unknown
Orbital elements
Apogee altitude
1,273.619 km
Perigee altitude
1,219.354 km
Semi-major axis
7,624.623 km
Eccentricity
0.00356
Inclination
90.2498°
RAAN
15.0267°
Arg. of periapsis
188.6613°
True anomaly
349.2012°
Mean anomaly
349.2774°
Eccentric anomaly
349.23933°
Mean motion
3.25998 °/min
Orbital period
110.43 mins
BSTAR
0.0011282
Loading maneuver chart data...
Computing Atmospheric mass density...
Loading historical data...
Loading historical data...
Loading historical data...
Loading historical data...
Loading historical data...
Loading historical data...
Loading historical data...

Documentation

Showing up to 5 results
|